Theta_e
339 339 340 339 337 336 337 335 333 333 331 328 328 326 325 323 325 325 325 327 330 330 330 330 330 330 330 329 329 328 329 329 330 330 331 333 335 336 336 334 336 336 334 332 332 331 333 334 333 333 333 331 330 328 327 328 328 329 329 329 328 328 328 328 327 327 327 328 328 329 329 330 330 330 329 328 327 328 328 328 329 330 329 328 328
339 339 338 338 337 337 337 335 333 331 331 330 329 327 327 325 325 325 326 327 329 331 330 330 330 330 329 329 329 329 329 330 330 330 331 332 334 338 337 337 338 337 335 333 333 333 333 334 334 332 330 330 330 330 330 329 329 329 328 327 327 328 328 328 328 328 327 326 327 327 328 328 329 329 329 328 327 327 329 330 330 329 328 328 328
338 338 338 337 337 337 336 336 334 332 331 330 329 327 325 325 325 325 325 326 328 330 329 329 330 330 330 329 329 329 329 330 331 332 332 332 333 335 335 334 335 336 337 338 336 334 334 332 329 329 328 330 331 330 328 327 328 328 328 327 327 327 327 327 327 327 327 327 326 327 327 327 327 327 328 327 327 327 328 328 328 328 327 327 327
337 337 337 336 336 336 336 335 335 331 331 331 330 329 326 326 327 326 326 327 327 328 329 330 330 330 330 329 329 329 330 330 332 332 332 331 332 333 335 337 335 337 337 337 337 334 332 331 330 331 330 331 330 331 328 327 327 328 327 327 326 325 324 325 326 325 326 326 326 326 326 327 327 327 326 326 326 327 327 326 327 326 326 326 326
335 336 337 336 335 335 335 335 334 332 331 332 331 329 330 329 327 327 327 328 329 328 330 329 329 329 330 329 329 329 330 331 331 332 331 331 331 331 333 336 338 338 337 335 336 335 332 333 332 332 333 332 331 331 328 327 327 328 329 328 326 325 324 325 326 326 326 326 326 326 326 326 325 326 326 326 326 326 325 325 325 325 326 325 327
334 335 336 334 334 334 333 332 331 331 331 331 331 329 328 327 326 328 330 327 327 327 328 328 329 329 329 329 329 330 330 331 332 332 331 331 330 331 331 332 333 334 335 333 337 337 338 333 330 330 332 331 331 330 329 328 328 328 327 325 325 325 325 325 326 325 326 324 325 325 325 324 324 325 325 326 325 325 325 325 325 325 326 326 326
335 334 333 333 332 331 331 332 331 330 331 331 331 329 328 326 327 326 325 326 327 328 328 328 329 329 329 329 329 329 331 331 332 332 330 329 330 330 331 331 332 332 333 334 339 337 337 335 330 329 329 330 331 330 329 329 329 328 326 327 328 327 325 324 325 326 326 326 325 325 325 325 325 325 325 324 325 325 326 326 326 326 326 326 326
334 334 333 332 332 332 331 331 331 331 331 331 331 329 327 326 327 327 325 325 326 326 328 328 329 330 330 330 330 330 330 332 332 331 330 330 330 330 330 331 331 334 335 333 335 336 335 335 336 331 329 330 329 329 329 329 330 328 327 328 327 325 325 326 326 324 324 325 325 325 325 325 325 325 325 325 325 325 326 326 326 326 326 326 326
334 334 333 332 332 330 330 330 332 331 331 331 330 329 328 327 326 328 327 325 326 326 327 328 329 331 331 330 330 331 331 331 332 331 331 330 329 330 330 330 335 336 331 333 334 335 336 335 336 335 333 329 330 331 328 328 329 329 327 328 327 326 326 325 325 326 325 324 324 325 325 325 326 326 326 326 325 325 326 326 325 325 325 326 326
333 333 333 333 332 330 329 331 332 331 330 330 328 328 328 327 325 326 327 327 326 326 326 328 330 331 331 331 331 331 331 332 332 332 330 329 329 329 329 331 331 330 330 331 332 333 334 335 335 335 335 334 333 330 331 331 329 329 328 328 327 326 325 325 326 325 325 325 325 324 324 325 325 326 325 325 326 325 326 326 326 326 327 327 327
333 333 332 333 331 330 330 331 332 330 330 328 327 327 327 326 327 326 327 327 327 328 328 330 330 329 328 329 329 329 330 331 331 331 330 329 330 330 329 329 329 329 330 330 331 332 330 329 329 330 335 335 334 332 331 332 331 329 329 328 329 329 328 328 326 325 325 325 325 324 324 325 325 325 325 326 326 326 326 326 326 327 327 327 327
332 332 332 332 330 330 330 331 331 330 329 327 327 327 326 326 326 326 326 327 329 330 331 330 328 328 327 328 329 329 329 329 330 330 331 330 331 329 329 328 328 328 329 329 329 329 329 329 330 329 331 334 335 333 334 333 333 331 331 330 330 330 329 329 327 327 326 326 325 325 325 325 325 325 326 326 326 326 326 326 327 327 327 327 327
333 332 331 334 331 331 330 331 331 329 329 328 328 327 327 327 327 327 326 325 327 330 331 330 327 325 327 327 327 329 329 329 328 329 329 329 329 329 328 328 328 329 329 329 329 329 328 328 329 328 329 331 334 333 333 332 333 331 332 332 331 330 331 330 329 328 326 326 326 325 325 325 326 326 326 326 326 326 326 326 326 326 325 326 327
333 332 332 332 331 331 330 331 330 328 328 328 328 329 327 327 327 325 327 326 325 329 330 329 324 323 321 322 325 327 328 328 328 328 328 328 328 328 328 328 328 328 328 328 328 329 328 328 328 328 328 329 331 333 334 333 334 332 332 332 332 332 331 329 330 329 327 326 326 327 326 326 326 326 326 326 326 325 326 326 326 326 327 328 329
332 332 332 332 331 331 330 331 330 329 328 327 328 327 326 326 326 325 323 326 327 329 329 324 323 325 325 322 319 318 323 325 327 327 327 328 329 329 329 327 327 327 327 327 327 328 327 328 328 328 329 329 329 330 333 332 331 332 332 331 330 331 332 331 330 330 327 327 327 327 327 327 326 326 327 327 328 328 329 329 329 329 329 329 328
332 332 332 332 331 330 330 330 329 330 329 327 327 326 326 326 325 325 326 323 325 325 327 324 327 324 317 318 319 319 315 318 321 325 328 327 328 327 328 326 326 326 326 327 327 327 327 327 329 327 328 328 328 329 329 329 329 331 330 333 332 331 331 332 330 330 328 328 329 328 328 328 327 328 329 329 330 330 329 330 329 329 329 328 327
332 332 333 331 330 331 331 331 329 329 329 328 327 326 326 326 326 325 325 324 323 325 326 325 327 325 322 318 315 315 316 319 320 321 326 325 326 326 327 327 326 326 325 326 326 326 326 328 327 327 328 328 328 328 328 328 329 333 332 329 332 332 332 331 331 330 330 329 330 330 329 330 329 330 330 330 330 329 330 330 330 329 328 327 326
332 332 333 331 330 331 331 330 329 329 329 329 328 327 326 325 326 326 325 326 325 324 324 326 325 323 320 320 321 316 316 320 320 313 323 326 326 327 327 327 326 325 325 326 326 326 326 327 327 327 328 327 327 327 327 327 329 328 328 328 328 330 329 330 332 331 330 331 331 331 331 331 330 329 329 330 330 330 331 330 329 328 327 326 325
331 332 332 332 331 329 329 330 330 329 330 329 327 326 326 326 327 326 325 325 326 323 323 323 325 324 323 320 322 320 323 321 316 317 314 320 324 323 325 326 325 325 325 325 325 324 325 326 326 326 326 326 326 325 326 327 329 328 328 326 323 324 327 325 326 332 332 331 333 332 331 331 330 330 330 330 330 330 329 328 327 327 325 324 323
331 332 332 331 330 329 329 329 329 329 330 329 328 327 326 327 327 327 326 326 325 324 323 324 322 322 324 323 322 321 322 318 321 319 317 315 317 323 324 325 324 325 327 326 324 324 325 324 324 325 325 325 325 325 325 327 328 328 328 324 324 324 324 324 323 320 325 330 332 331 330 330 330 330 330 330 329 328 327 326 326 325 324 322 321
332 331 331 331 331 329 329 329 329 329 330 329 329 328 327 326 326 325 325 325 325 325 325 323 323 321 320 317 319 320 319 320 321 319 318 315 315 317 319 322 323 323 325 325 325 324 324 324 326 324 324 323 324 325 325 326 326 324 324 320 323 323 322 322 319 321 319 328 332 331 330 329 330 331 330 328 327 326 326 325 324 323 322 321 320
330 331 331 331 330 329 329 329 329 329 330 329 329 328 327 326 326 326 326 325 325 325 325 325 325 323 323 319 317 317 318 319 319 318 319 319 315 316 319 318 318 320 323 324 325 324 325 325 324 323 322 321 322 322 323 324 323 323 321 319 322 322 322 320 317 317 317 324 329 329 330 331 330 330 329 327 327 326 325 324 323 322 321 320 319
329 330 331 331 330 330 329 328 329 330 330 329 328 328 326 327 327 327 326 325 325 325 325 324 325 323 322 321 321 321 319 317 318 318 316 315 317 317 319 320 320 319 322 324 324 324 325 324 323 321 320 320 320 321 321 323 323 321 321 322 321 323 321 317 315 312 316 324 327 328 329 329 330 330 328 326 325 325 324 324 323 322 320 319 319
329 328 329 330 330 330 329 329 328 329 329 329 328 329 328 327 327 326 326 326 326 325 324 323 323 323 323 322 322 322 320 320 320 320 319 318 319 317 318 320 320 319 322 323 325 324 324 322 320 319 319 320 320 319 320 320 321 320 321 320 321 321 320 319 315 314 313 320 324 327 328 329 330 328 326 325 325 324 324 323 322 321 319 319 319
327 327 328 329 330 329 329 328 328 328 329 329 328 328 327 327 327 326 326 326 325 325 324 324 324 323 323 322 322 321 321 319 321 320 318 320 320 318 319 320 317 318 320 322 322 323 323 321 320 319 319 318 318 318 318 318 320 319 319 319 317 317 319 323 321 316 315 315 319 324 329 329 328 326 325 324 324 324 324 321 319 317 317 319 318
326 327 329 329 329 329 329 329 329 328 328 329 328 328 327 327 326 326 326 326 326 325 325 324 324 325 324 322 321 322 320 320 322 321 320 320 318 318 318 317 319 318 318 320 321 321 320 319 319 318 318 317 316 316 317 318 318 318 318 319 317 316 316 318 322 321 316 314 313 314 316 321 323 324 323 324 323 317 315 313 312 311 310 312 317
327 327 328 328 328 328 328 328 328 328 328 328 329 328 328 327 327 326 326 326 326 325 324 324 323 323 323 324 322 321 320 321 322 321 322 322 320 320 319 315 316 318 317 319 320 319 319 316 318 317 317 316 316 316 315 316 317 314 314 318 318 313 313 315 320 320 315 311 309 309 310 312 313 314 313 312 311 314 316 315 313 311 309 310 314
326 327 327 328 327 327 327 327 327 328 328 328 328 328 327 327 326 326 325 326 325 324 324 323 324 323 323 323 323 322 321 321 322 322 322 322 321 321 321 319 316 312 315 316 317 318 317 317 316 317 316 315 315 316 317 315 316 316 315 315 316 316 311 311 314 316 314 312 310 308 308 309 310 309 311 314 316 316 316 316 315 312 310 313 317
325 327 326 327 327 327 327 326 325 327 327 328 328 328 327 327 326 325 325 325 325 324 323 323 323 323 322 323 324 322 321 322 322 322 322 321 322 322 322 321 320 316 313 313 315 316 317 313 317 315 315 314 315 314 314 313 314 312 312 313 313 315 312 311 310 312 311 310 311 310 310 311 311 312 314 317 318 319 317 315 314 312 311 316 318
326 326 326 326 326 329 327 326 325 325 326 327 328 328 327 326 326 326 326 325 324 322 323 324 322 322 321 321 322 322 321 322 322 321 321 322 322 322 322 321 321 318 316 313 313 317 316 313 313 314 313 313 313 313 313 312 311 311 310 310 311 313 308 308 308 307 307 308 307 305 306 308 311 313 316 317 317 316 314 313 312 312 314 318 318
326 325 325 325 325 326 325 324 324 324 325 325 326 326 326 325 325 324 324 325 324 323 322 323 321 322 322 321 320 321 321 322 321 321 321 322 322 322 321 320 319 319 317 314 313 315 315 316 313 311 314 313 313 313 311 311 311 309 309 309 309 309 309 309 308 307 308 308 306 306 310 310 310 311 313 316 317 315 313 314 316 315 316 318 314
325 325 324 324 324 324 323 324 323 323 323 324 325 326 325 325 324 324 324 324 324 323 322 322 323 322 322 322 321 321 321 321 321 321 321 321 322 322 320 319 318 318 318 314 314 315 313 316 313 311 314 313 312 312 310 310 311 308 308 308 309 309 309 310 307 307 307 307 307 312 317 315 311 312 314 316 317 316 316 316 316 316 316 312 310
323 323 323 324 324 323 322 323 323 323 323 323 323 324 324 323 324 324 323 324 324 322 323 322 323 322 323 322 320 320 321 321 320 320 320 320 320 321 319 318 317 318 318 315 314 310 309 308 310 311 313 313 310 311 310 310 309 308 307 306 308 307 306 307 308 305 305 305 305 306 309 307 308 314 314 313 315 314 312 311 311 309 311 311 307
323 323 323 323 323 323 323 323 323 323 323 323 322 323 323 322 322 323 324 324 323 322 322 323 322 322 322 321 319 319 321 321 320 320 321 321 320 320 318 318 318 318 318 315 311 310 311 307 308 309 311 312 312 309 312 309 309 307 306 306 305 304 303 304 304 306 303 304 303 304 306 306 305 308 309 305 307 308 308 307 307 306 308 306 302
322 323 322 322 323 323 323 322 322 322 322 322 322 323 322 322 322 322 323 324 323 322 322 323 322 321 321 321 319 319 320 321 320 321 320 321 321 320 319 318 318 318 317 316 312 310 310 308 307 308 309 310 312 309 309 309 308 305 306 305 305 305 305 303 303 303 301 301 301 302 303 304 304 304 305 306 305 304 304 304 304 304 304 304 301
321 322 322 322 322 322 322 322 322 321 321 320 321 322 322 322 322 322 322 323 323 323 323 323 322 321 321 320 319 321 321 321 319 319 319 320 321 320 319 318 318 316 317 315 317 313 310 309 305 307 308 309 308 304 307 307 306 305 305 304 303 304 304 303 303 302 301 301 301 301 302 303 303 303 303 304 304 304 304 304 303 303 303 303 303
321 321 321 321 321 321 321 321 321 321 320 320 320 320 320 321 322 321 321 322 322 322 323 323 324 321 321 321 320 320 320 320 318 318 318 319 319 320 319 318 317 317 316 315 315 311 310 311 307 305 306 307 305 303 307 306 304 303 302 303 304 304 305 304 303 302 301 301 302 302 302 302 302 303 302 302 302 302 302 303 303 302 302 302 302
321 321 320 320 321 321 321 321 321 321 320 320 320 319 319 319 319 320 321 321 321 322 322 322 322 320 320 319 320 320 320 321 319 319 318 319 318 318 318 318 318 316 315 314 313 312 312 310 308 304 304 306 304 304 304 307 306 305 303 303 301 301 302 304 304 303 303 302 303 304 302 302 302 301 302 302 302 301 301 302 302 302 302 302 302
320 320 319 319 320 320 320 320 320 319 319 318 318 318 318 318 318 319 319 319 320 321 321 321 320 320 320 320 319 319 319 320 319 318 317 317 317 316 316 317 316 316 314 312 311 310 310 307 305 305 304 303 306 305 303 305 306 305 306 305 305 303 302 302 304 303 304 304 303 301 302 303 303 303 302 302 302 302 302 301 301 302 301 301 300
320 320 319 318 317 317 317 317 316 316 316 315 315 316 317 317 318 318 319 319 319 320 319 319 319 319 320 320 319 317 317 317 318 318 317 316 314 314 312 314 314 314 312 309 309 309 308 307 306 304 304 304 303 303 303 304 304 304 304 305 304 305 305 304 303 303 304 305 305 304 303 303 303 302 301 301 301 301 301 301 302 303 302 301 300
320 319 316 315 313 311 311 311 311 312 313 313 313 315 316 316 317 317 318 319 319 318 317 317 315 315 314 314 314 316 319 317 312 312 313 312 313 312 310 312 311 310 308 307 307 306 306 306 305 303 304 304 303 304 303 303 304 305 306 306 305 305 304 305 305 303 302 303 304 304 304 306 304 306 305 305 305 303 303 302 303 303 302 301 300
317 315 314 313 312 311 309 308 308 308 307 306 305 307 311 317 317 317 318 319 318 317 315 312 311 311 311 313 316 315 311 310 307 303 302 305 309 312 311 311 310 309 308 307 307 307 307 306 306 304 304 303 303 303 304 304 306 306 305 305 304 305 305 305 307 307 305 303 303 304 304 306 307 306 306 305 307 309 308 308 306 305 303 300 300
315 313 312 311 310 310 309 308 307 306 303 303 298 295 302 307 316 318 318 317 316 315 314 312 310 310 310 311 311 311 308 306 303 298 297 297 297 298 299 302 308 311 309 308 308 307 307 306 305 304 305 304 306 304 304 306 307 306 306 304 304 304 304 303 304 306 308 306 305 304 306 308 307 305 306 306 308 311 307 307 302 301 301 300 300
312 311 310 309 308 307 307 306 305 304 303 298 295 295 299 303 309 317 317 315 314 313 312 311 312 312 312 312 313 313 310 308 307 305 301 298 298 298 297 297 296 296 299 309 310 309 308 308 307 306 306 308 308 306 307 307 309 306 305 305 304 305 304 303 303 304 310 306 307 305 306 308 308 306 306 306 307 308 309 304 301 300 300 300 299
310 309 308 307 307 307 307 306 304 304 303 296 296 296 298 301 303 311 315 314 312 312 312 313 313 313 313 312 311 312 315 316 314 313 312 309 303 301 301 301 299 297 295 295 298 310 311 311 310 309 311 309 310 311 311 311 307 312 307 306 304 305 305 304 304 304 309 308 308 306 306 309 307 306 306 308 310 308 309 303 301 300 300 299 299
309 307 307 306 306 306 306 306 304 303 303 297 296 297 298 299 301 306 313 313 313 313 313 313 313 312 312 312 311 309 310 312 314 314 314 314 312 310 308 308 307 304 299 297 298 298 304 312 313 313 311 311 313 312 311 309 311 312 310 309 308 308 306 307 309 309 309 308 308 307 306 311 309 309 310 312 313 312 311 306 300 299 299 299 299
307 306 306 305 305 305 305 305 305 303 301 296 296 297 297 299 301 305 314 314 313 313 312 311 311 310 310 311 311 310 309 309 310 312 313 311 309 307 305 305 305 304 304 305 306 307 309 309 309 309 309 310 310 310 309 309 313 312 312 312 311 312 311 310 310 309 307 305 308 309 307 310 308 310 311 313 312 311 306 300 297 297 297 298 298
303 304 304 305 305 305 305 306 306 305 301 295 296 298 299 300 304 313 312 311 309 308 307 307 308 308 309 309 309 309 308 307 303 302 306 311 309 306 304 304 303 304 304 300 295 297 303 305 305 304 304 300 296 300 300 302 306 308 309 310 310 310 310 308 308 304 305 303 302 305 306 308 308 308 309 310 307 308 303 302 298 298 298 297 297
300 300 300 302 303 304 305 305 305 304 303 296 296 298 300 300 304 309 308 306 304 302 302 301 302 304 306 305 306 305 305 303 299 299 301 305 307 305 304 303 304 304 303 305 299 294 294 294 293 293 293 294 294 294 294 293 298 303 309 309 307 307 308 307 305 304 303 300 300 300 301 304 306 304 304 308 305 302 301 300 300 298 297 297 297
298 298 299 299 300 301 302 303 305 305 303 297 295 297 299 300 304 308 306 304 302 301 300 299 299 299 301 304 303 302 302 301 295 298 299 305 305 304 303 302 302 303 303 303 306 305 297 296 295 294 294 294 294 295 294 294 295 300 309 307 306 306 306 306 306 304 302 299 297 299 301 303 304 304 302 305 305 302 302 302 300 300 298 297 296
298 299 299 299 299 299 300 302 305 302 302 300 296 296 298 299 304 306 305 303 301 299 299 298 299 298 298 298 299 300 300 297 294 295 296 302 304 303 303 303 302 301 300 302 304 305 305 304 302 301 299 298 299 299 298 294 295 297 299 302 304 306 305 303 303 303 303 300 297 298 300 302 301 301 300 302 302 306 302 301 301 301 300 300 300
Wind_Speed
5 5 4 4 3 3 3 2 2 1 2 2 2 1 1 3 5 4 4 5 5 5 5 5 5 5 6 5 5 5 4 4 4 4 3 3 3 5 9 8 5 4 7 7 7 6 6 7 7 8 8 9 8 8 7 8 8 9 9 9 10 9 9 9 8 8 9 10 10 10 11 12 13 13 13 12 12 11 11 12 14 15 15 14 14
6 5 6 5 4 4 4 3 3 2 2 3 2 2 2 3 4 4 5 5 5 5 5 6 5 5 5 6 5 4 4 5 4 4 3 3 3 5 10 7 4 5 7 7 6 6 6 6 7 7 6 7 8 8 7 8 8 8 9 9 9 9 9 8 9 9 8 9 9 9 10 11 12 13 13 12 11 13 15 15 15 15 15 14 14
6 6 5 5 5 5 4 3 3 3 3 2 1 2 1 3 2 4 5 5 4 4 5 6 6 5 5 5 5 4 4 4 4 4 4 4 4 4 6 8 5 4 3 1 6 6 6 5 4 5 5 7 8 8 6 7 7 8 8 8 8 9 9 8 8 9 9 8 8 9 9 10 11 12 12 12 12 13 14 15 15 15 14 15 15
7 6 6 6 5 5 4 4 4 4 3 2 1 0 1 2 3 5 5 6 5 4 4 6 6 5 5 5 4 4 4 4 4 4 4 4 4 4 4 3 4 3 4 6 6 5 5 4 4 4 4 6 6 8 6 6 7 7 8 7 7 7 7 8 9 8 8 8 8 8 9 11 11 12 13 12 13 14 15 15 15 14 15 15 17
6 7 8 6 5 5 5 5 5 4 3 3 3 2 2 2 4 5 6 6 6 5 4 4 5 5 5 4 4 4 4 4 4 3 4 4 4 4 3 3 3 4 5 5 4 4 5 4 4 4 5 6 7 7 6 5 7 7 7 7 7 7 7 7 8 8 8 8 9 9 9 10 10 12 12 12 13 14 14 14 13 13 13 14 16
7 7 7 6 6 6 6 5 4 4 3 3 3 3 3 3 4 5 5 6 6 6 6 6 5 5 5 4 4 4 4 5 4 3 3 3 3 4 3 3 4 3 3 4 5 6 4 2 2 5 6 5 5 6 7 6 6 7 7 6 7 7 7 7 7 8 8 8 8 9 9 9 10 10 11 12 12 13 13 13 13 14 13 13 14
6 7 6 6 6 5 5 3 2 3 3 3 4 3 3 4 4 5 5 6 6 5 6 6 6 5 5 4 5 4 4 5 4 4 3 3 3 4 4 4 4 4 3 3 3 6 6 5 5 4 3 6 5 6 6 5 6 7 6 6 7 7 6 7 7 8 8 8 8 9 9 10 10 11 11 11 12 12 12 12 13 13 13 13 14
6 6 6 6 6 5 4 0 4 2 3 4 4 5 4 4 3 6 6 5 7 5 4 5 5 6 5 4 5 5 5 4 5 4 3 3 3 3 3 3 4 4 4 3 3 4 5 3 4 4 4 5 5 5 5 5 6 6 6 6 7 6 6 6 6 7 7 7 8 8 9 9 10 10 11 11 11 11 12 12 12 13 13 13 13
7 7 7 6 5 5 6 5 2 2 3 4 5 5 6 5 4 3 5 5 6 6 5 5 5 6 6 5 5 6 5 4 3 2 3 4 3 3 3 3 4 4 3 3 3 3 4 4 3 3 4 5 5 6 4 4 5 5 5 6 5 5 5 5 6 6 6 7 8 8 9 9 9 10 11 11 11 11 11 12 12 12 12 12 11
6 7 6 6 5 7 7 7 4 2 3 4 4 4 5 6 6 3 4 6 6 6 6 6 5 5 7 6 5 4 4 3 3 3 3 4 3 3 3 3 3 3 3 3 3 3 3 3 3 2 3 4 5 5 4 4 4 4 4 5 5 5 4 5 6 6 6 6 7 7 7 7 8 8 9 10 10 11 11 11 11 11 11 10 10
5 6 6 5 6 7 7 5 5 4 3 4 5 5 5 5 7 5 5 4 6 6 7 7 5 5 6 7 6 5 4 4 3 3 2 3 4 3 2 2 2 2 3 2 2 3 2 1 1 1 2 6 5 4 4 4 4 5 4 4 6 6 6 5 6 5 6 6 6 6 6 6 6 7 8 8 9 10 10 9 9 8 8 9 9
6 6 6 6 7 7 7 4 4 5 5 6 5 5 7 7 7 8 9 7 6 6 7 7 7 6 7 5 4 5 5 5 4 3 3 3 4 2 2 2 2 2 2 2 2 2 2 1 2 2 1 3 5 4 3 2 2 3 5 5 5 6 5 7 6 5 6 6 6 6 6 6 6 5 7 8 8 7 7 7 6 6 7 7 8
6 6 6 6 7 7 6 5 4 3 5 6 6 5 5 6 6 5 9 9 6 6 7 7 7 6 5 5 5 4 5 5 4 3 3 3 3 2 2 2 2 2 2 2 2 2 2 1 1 1 2 1 3 4 4 4 3 3 2 3 3 6 6 6 7 7 5 6 6 5 5 5 4 5 5 6 6 6 5 5 5 5 6 6 7
2 2 4 6 7 7 7 7 7 5 3 3 5 5 7 7 7 6 4 8 6 8 8 8 4 5 6 5 4 5 4 4 4 3 3 3 3 3 2 3 3 2 2 2 2 2 2 1 1 1 1 2 2 2 2 2 2 1 2 2 4 5 6 6 7 7 6 6 6 6 5 4 4 4 5 5 5 5 5 5 5 5 6 7 9
1 4 7 4 6 6 7 7 7 8 6 5 6 7 7 8 8 8 7 3 4 5 8 2 6 5 5 4 4 3 2 2 3 3 3 4 4 4 4 3 3 3 2 2 2 1 1 2 2 2 1 1 1 2 1 1 1 2 0 4 2 3 4 6 6 7 7 6 6 6 5 5 5 5 5 5 5 4 5 6 5 5 7 11 13
5 8 6 4 6 3 3 5 6 7 7 6 6 6 7 7 7 7 8 9 6 6 3 3 6 10 5 1 3 2 3 3 3 2 4 5 5 4 4 3 3 3 2 3 2 2 2 2 2 1 2 2 2 2 2 1 1 2 2 2 4 5 5 7 6 7 8 7 6 6 5 5 5 5 5 4 4 3 4 6 6 7 13 12 12
5 6 5 5 6 6 5 4 5 5 6 6 7 7 7 7 8 8 9 9 8 6 6 3 6 1 6 5 3 2 2 3 5 1 4 3 3 4 3 4 3 3 2 2 2 2 2 2 1 1 1 1 1 2 1 1 1 1 1 1 2 3 6 3 6 7 9 7 6 7 6 6 6 4 4 5 5 3 7 10 12 13 12 12 11
7 6 4 7 8 7 6 6 5 5 5 5 6 6 7 8 8 8 8 7 9 9 6 4 4 2 1 2 4 5 6 6 4 3 2 3 3 4 3 3 3 2 2 2 2 2 1 2 1 1 1 1 1 1 2 2 1 1 0 1 2 2 3 5 8 9 9 9 7 9 8 7 6 4 3 4 5 11 13 13 12 11 11 11 12
9 7 6 6 5 7 9 8 8 7 5 5 5 7 8 8 7 7 7 7 7 10 10 7 3 3 1 1 1 1 6 8 4 4 4 2 3 1 2 2 2 2 2 3 2 2 2 1 1 1 1 1 1 1 1 2 3 2 1 2 2 2 3 4 3 7 9 9 9 10 8 7 6 5 4 7 11 12 12 11 10 10 10 11 12
7 5 6 6 8 9 7 7 7 6 6 7 6 6 5 5 7 6 5 6 9 9 8 8 9 6 2 1 1 1 3 3 5 5 5 6 3 2 1 3 2 2 2 3 3 3 2 1 2 2 2 2 1 1 2 2 1 0 1 2 3 2 2 5 9 3 5 6 10 8 6 4 6 8 11 12 11 10 10 10 10 10 10 10 11
5 6 8 8 8 8 8 7 6 6 6 5 5 6 7 6 7 7 7 6 6 5 7 8 6 6 5 2 3 3 3 2 4 4 4 5 3 4 3 2 2 2 1 1 2 1 2 2 3 3 2 2 2 2 2 1 1 1 2 2 3 3 3 3 3 1 3 7 5 4 4 3 7 13 13 11 11 11 11 10 10 10 10 10 11
5 8 7 7 8 7 8 8 7 7 6 6 5 6 7 7 7 8 8 7 5 6 7 7 7 5 4 5 4 3 3 2 2 4 3 2 5 6 4 5 4 1 1 2 2 2 3 3 3 3 3 2 2 2 1 1 0 1 1 3 3 3 3 7 4 3 3 4 7 3 3 9 9 13 12 11 11 11 11 11 11 11 11 11 11
5 5 5 7 7 7 7 7 7 7 7 7 7 7 7 8 7 7 8 8 7 6 5 4 5 5 6 6 7 8 7 5 6 5 4 4 5 5 5 5 3 4 1 1 2 3 4 3 3 2 1 2 2 2 2 2 2 1 2 1 0 2 5 7 7 5 7 7 5 3 6 6 12 12 10 9 10 11 11 11 11 11 11 11 11
5 3 3 5 5 6 7 6 6 7 7 7 6 6 6 7 6 6 6 7 6 6 5 6 7 5 6 5 6 6 5 5 6 6 6 4 6 6 6 4 3 2 1 2 4 4 3 3 2 2 2 3 3 2 2 2 3 4 2 4 3 3 5 6 7 8 7 4 3 7 7 9 10 9 9 10 10 11 11 12 11 11 11 11 11
4 6 7 8 6 6 6 7 6 6 6 6 6 7 7 7 8 8 7 8 8 8 7 8 8 8 8 6 5 6 5 3 6 6 4 5 6 7 4 5 3 2 1 1 2 2 2 2 2 2 3 3 2 2 2 2 2 4 4 4 5 5 5 7 8 8 10 9 6 4 7 9 8 8 10 10 10 11 11 10 9 8 8 9 10
6 6 5 5 5 6 6 6 6 6 6 7 7 8 7 7 7 7 8 7 6 8 8 7 7 8 6 6 6 6 5 4 6 6 6 7 7 9 8 3 2 3 1 1 2 2 1 2 2 3 3 3 2 2 2 2 3 4 4 4 5 6 7 8 7 7 7 8 5 6 8 9 9 8 8 9 9 10 10 9 7 7 8 8 9
7 7 7 7 6 4 4 6 6 6 6 6 6 7 7 6 6 7 6 6 7 7 6 7 7 7 7 7 6 5 5 5 6 6 6 7 8 8 9 8 4 3 2 1 1 2 1 1 1 2 2 3 2 2 2 2 3 3 4 4 3 6 7 8 8 9 9 10 10 10 10 10 10 10 11 11 11 10 9 7 6 6 6 6 7
5 5 5 6 7 7 5 3 4 5 6 7 7 7 7 7 6 6 7 5 7 8 7 7 7 8 8 6 6 6 5 6 6 6 6 6 7 7 8 8 9 5 3 3 2 3 2 2 0 2 3 3 2 2 3 3 2 4 4 3 3 3 7 8 9 9 10 9 9 10 10 11 11 11 10 11 11 10 8 7 6 6 6 7 5
5 5 5 6 6 6 7 8 5 6 6 6 7 7 7 7 6 7 7 6 7 8 6 7 6 7 6 7 6 6 5 5 5 5 5 5 5 7 8 9 7 7 7 6 5 5 3 3 2 1 2 3 3 2 2 2 2 2 2 2 3 3 5 8 9 9 10 10 9 10 11 11 11 11 11 11 10 8 9 8 7 7 7 6 5
6 6 6 7 6 7 7 7 7 5 6 6 6 7 7 6 7 7 7 7 6 5 5 6 6 6 5 5 4 5 5 6 6 6 6 7 6 7 7 4 5 7 7 6 6 6 3 2 2 2 2 3 2 3 2 2 3 3 2 2 2 2 6 7 9 9 9 10 10 11 11 12 11 11 11 11 11 11 10 9 8 7 6 6 7
6 5 6 7 7 6 6 6 5 5 3 5 5 6 6 6 6 6 6 6 7 6 5 6 5 6 6 6 4 5 5 5 5 5 5 6 6 6 6 4 4 4 7 3 4 4 3 5 4 1 3 3 2 3 2 2 2 2 2 2 2 3 5 5 8 8 9 10 10 10 10 11 11 10 10 10 10 10 9 8 6 6 7 7 6
6 7 7 7 7 7 6 6 6 6 6 7 7 6 7 7 7 6 6 6 7 6 5 4 5 6 6 6 5 5 5 5 5 5 6 5 5 6 5 4 4 4 5 4 3 4 2 2 3 2 3 4 3 4 3 2 2 3 2 2 2 3 2 2 4 6 8 8 9 9 9 9 9 9 9 9 9 9 8 8 8 8 8 7 8
7 7 7 7 8 7 7 7 8 8 7 6 5 6 6 6 5 6 6 6 6 5 5 5 5 6 6 6 5 4 5 6 5 5 5 5 5 4 5 5 5 4 5 4 4 3 1 1 1 2 2 4 3 3 4 3 3 1 2 1 1 0 0 0 1 2 4 6 7 7 8 8 8 9 9 10 10 10 10 10 9 9 9 8 9
7 8 8 7 7 6 7 6 7 7 7 7 6 6 6 6 5 4 6 6 6 5 5 6 5 4 5 6 5 4 4 6 6 6 6 6 6 6 5 6 6 5 4 4 2 4 5 2 2 2 2 2 2 3 5 5 4 2 2 1 1 1 0 1 1 2 3 4 5 6 7 7 8 8 9 9 9 9 9 9 9 9 9 9 10
6 7 7 7 6 6 6 6 7 7 7 7 6 6 6 7 7 6 6 7 7 6 6 5 5 5 6 5 5 5 5 5 5 5 6 6 6 6 6 5 6 6 4 3 4 3 5 4 2 3 3 3 3 4 4 2 2 2 2 1 0 0 1 1 2 2 3 5 5 5 5 5 6 6 7 7 7 7 7 8 8 8 9 9 9
6 5 6 6 5 5 5 6 7 7 7 6 6 6 7 7 7 7 6 6 6 7 7 6 6 6 6 6 6 6 6 7 5 5 5 5 6 6 7 6 6 6 5 4 4 4 4 5 3 3 3 4 2 1 2 2 3 2 2 1 1 2 2 2 2 2 2 4 5 5 4 4 5 6 6 7 7 8 8 9 9 9 9 9 9
6 7 5 5 5 5 5 7 7 8 8 8 7 6 5 6 7 7 7 6 6 6 6 7 6 6 6 7 7 6 6 7 5 6 6 7 5 6 7 6 6 5 4 4 4 4 5 5 3 0 2 1 1 1 3 4 2 2 1 2 2 3 3 3 2 2 4 5 6 7 7 7 7 7 8 8 8 8 9 9 9 9 10 9 10
7 6 6 6 6 6 6 7 8 8 7 7 7 7 7 6 5 6 6 6 6 6 6 6 6 6 6 6 7 6 7 7 7 6 6 7 6 6 6 6 5 5 5 4 4 3 4 3 4 3 1 3 2 1 3 3 4 2 2 2 1 2 3 3 3 2 2 3 3 3 5 7 9 10 10 9 9 10 10 10 10 10 11 11 12
8 7 5 5 4 5 6 6 7 8 7 6 6 6 6 6 7 7 6 6 6 5 5 6 6 6 6 6 7 6 7 6 7 8 7 6 6 7 6 6 5 6 5 5 4 4 4 4 2 2 3 1 2 3 1 3 3 3 4 2 3 2 2 3 4 2 2 3 5 6 6 6 7 7 9 11 10 11 12 12 12 13 13 13 14
6 6 7 6 4 4 5 5 6 6 6 6 5 6 6 6 6 6 7 7 7 6 6 5 5 5 6 6 6 6 6 6 6 6 7 7 5 5 4 5 5 5 5 4 4 4 4 4 2 3 2 3 1 1 1 3 2 2 2 3 5 3 1 2 4 3 2 3 4 3 4 6 7 9 10 10 12 13 14 13 14 14 14 15 15
6 7 6 6 7 6 5 6 7 5 6 5 5 6 6 5 6 7 7 8 7 7 6 5 4 4 4 4 4 4 4 5 5 6 6 6 7 6 4 5 6 6 5 4 5 5 4 4 3 2 3 2 3 4 4 4 3 1 2 3 3 1 1 3 2 3 4 4 3 3 4 3 4 5 4 5 7 10 11 13 11 14 14 13 12
6 7 8 6 6 7 7 6 6 5 4 3 2 5 7 7 7 6 7 8 8 8 8 7 5 5 5 4 5 7 7 7 7 7 8 7 8 6 5 6 8 7 7 6 5 5 5 5 4 5 5 4 2 3 2 0 1 2 3 2 3 2 2 3 4 2 3 4 3 5 4 3 5 6 4 6 7 5 4 3 5 7 9 12 13
8 7 7 8 8 7 8 8 7 5 3 2 2 3 8 11 8 8 8 7 7 8 8 9 7 7 6 6 6 8 9 10 11 17 16 16 15 16 15 12 7 5 7 6 4 3 3 3 3 4 2 1 2 2 3 1 1 3 3 3 4 1 2 3 6 3 1 3 2 2 3 3 5 5 5 5 5 1 3 6 10 11 12 12 12
8 7 6 5 7 7 7 7 6 5 4 3 1 4 9 12 10 9 8 8 7 7 8 8 7 7 8 7 6 5 6 8 10 13 15 15 17 17 18 17 16 15 9 6 6 4 3 5 5 3 4 4 1 2 2 3 3 2 3 4 4 4 4 4 3 2 1 1 2 1 6 1 3 3 5 5 2 1 5 6 8 10 9 9 8
8 7 6 6 7 7 8 8 6 5 4 3 4 7 10 12 13 10 7 8 8 7 6 8 8 8 7 7 6 4 5 12 11 10 11 12 13 17 16 17 16 15 14 15 11 6 6 8 7 4 3 3 3 1 2 1 2 1 2 2 2 2 2 3 3 1 1 1 1 0 4 3 2 2 4 3 1 4 5 6 9 9 7 7 8
8 7 5 6 7 7 7 8 7 4 4 3 7 10 10 13 13 11 8 8 7 7 6 6 6 6 6 7 7 5 4 5 6 9 9 10 9 10 10 9 8 10 11 12 11 11 7 5 5 5 0 1 1 1 2 1 2 2 1 2 0 1 2 4 2 1 3 3 2 1 3 3 2 2 3 3 1 2 1 3 6 8 9 8 10
6 7 7 7 7 7 7 7 7 5 4 5 10 12 12 14 14 11 9 8 8 8 7 7 6 6 5 5 8 8 5 6 5 8 10 10 10 9 9 9 9 7 7 7 7 6 6 6 6 5 3 2 2 1 1 1 1 2 1 1 2 1 0 1 3 4 5 7 6 0 2 3 2 4 4 4 4 3 4 5 7 7 8 10 10
8 5 4 6 8 8 7 7 8 8 6 8 11 14 15 16 15 9 10 10 9 9 9 8 8 6 6 7 7 7 6 6 5 11 11 10 10 10 9 9 8 8 8 5 5 7 7 7 6 6 5 5 6 5 5 3 3 1 1 3 4 3 1 1 2 2 4 4 6 4 1 2 2 3 4 3 1 2 3 3 6 8 9 10 10
9 8 6 6 7 7 7 6 9 8 7 7 9 13 17 17 13 9 10 8 8 9 9 8 8 7 6 6 6 6 6 5 3 10 12 13 10 9 9 9 7 7 6 5 8 11 13 14 14 13 13 12 12 12 11 9 4 1 2 3 3 1 3 3 2 2 3 4 5 6 2 3 2 2 4 3 2 1 3 3 4 7 10 10 12
9 8 5 6 9 8 8 8 7 10 8 7 8 9 11 13 13 11 7 8 8 8 7 8 10 9 8 13 7 6 7 5 8 10 9 11 10 9 9 10 9 9 6 3 3 5 9 12 13 14 14 12 12 14 15 14 14 8 5 5 1 2 3 2 2 2 2 4 6 7 3 2 3 4 6 5 1 1 2 2 4 6 8 8 10
9 8 4 6 10 9 8 10 14 11 7 7 10 11 12 11 11 9 8 8 9 7 8 9 9 8 6 9 11 8 7 9 13 11 10 9 8 7 7 9 8 7 3 2 5 6 7 9 9 10 11 11 10 8 9 15 15 12 8 5 3 3 3 2 2 2 2 4 6 9 4 4 6 6 5 5 4 3 1 3 5 6 6 6 6
Wind_Direction
158 166 161 157 141 145 147 158 145 165 114 95 117 117 69 77 91 111 119 115 120 126 127 120 123 125 135 139 138 131 129 121 119 113 107 114 129 134 116 115 121 140 117 107 108 111 110 109 106 94 93 92 89 84 90 89 90 90 86 85 85 83 80 79 78 80 76 74 73 76 74 74 75 76 73 72 71 73 75 69 67 65 63 61 60
165 162 172 171 158 149 151 170 184 214 164 174 161 149 192 86 95 112 110 112 120 139 128 122 121 126 135 137 141 138 131 129 121 112 110 109 116 116 119 113 103 81 112 124 118 119 113 110 113 112 104 107 105 102 95 99 95 93 90 87 86 89 87 82 81 79 74 68 76 76 72 70 72 73 75 75 73 77 75 74 72 69 67 63 63
166 170 181 169 169 163 166 160 181 218 220 192 183 165 99 98 142 131 107 102 109 131 127 127 130 129 139 138 134 125 125 117 106 108 102 109 102 104 120 125 111 85 52 57 125 108 109 107 85 88 105 103 111 110 104 97 97 89 87 88 86 82 82 85 82 84 85 86 77 74 70 68 72 73 76 77 78 76 73 73 73 73 71 68 68
162 164 178 173 178 171 160 166 200 206 199 173 151 84 113 152 108 90 92 99 106 104 124 131 136 133 134 132 127 126 120 114 104 105 110 104 100 92 92 100 125 101 75 75 98 120 104 110 122 121 111 113 113 110 109 104 95 99 99 91 90 88 86 79 78 79 82 81 84 77 73 75 76 78 76 75 75 75 74 73 72 73 74 74 73
165 164 173 179 181 175 176 193 197 194 178 158 147 100 91 85 70 86 89 98 105 106 93 98 124 130 121 129 126 120 116 112 119 108 111 107 95 96 85 89 96 102 103 83 55 83 111 125 137 126 116 122 117 114 103 103 106 107 109 111 102 88 85 94 94 89 89 84 83 80 77 71 75 77 77 79 75 73 74 76 78 76 75 75 67
163 165 162 176 185 184 184 189 190 176 133 145 166 165 145 101 90 87 93 103 112 123 129 128 122 117 121 130 120 125 128 124 125 116 112 99 107 99 96 90 97 96 90 101 64 48 41 112 93 127 135 129 112 107 113 117 112 107 100 94 90 95 99 96 95 92 81 80 82 87 87 87 85 85 87 83 81 81 80 79 77 75 74 73 70
174 162 167 173 178 171 178 154 174 151 151 184 172 177 150 123 122 96 86 96 108 125 137 137 133 129 135 137 133 126 119 128 127 122 105 100 94 83 93 95 96 86 76 56 64 80 56 43 79 55 87 105 116 112 118 119 112 100 108 106 105 99 91 79 79 84 88 81 86 92 92 91 88 86 86 87 87 86 82 79 77 76 78 80 74
172 166 167 181 174 168 116 271 223 125 134 166 158 167 140 112 100 127 112 106 115 114 121 121 121 125 132 128 129 128 130 130 133 126 116 106 94 96 87 103 103 102 89 71 69 87 86 64 54 102 109 117 119 122 113 124 114 114 113 113 107 104 102 115 109 94 93 94 92 87 91 95 96 96 91 86 87 85 82 80 79 78 79 74 68
171 172 173 180 172 118 91 225 194 107 150 151 165 155 145 127 104 94 117 134 125 123 120 121 118 123 131 130 129 132 138 140 122 112 119 106 102 103 108 103 116 101 94 88 91 101 94 71 71 80 120 123 127 126 123 115 125 122 126 116 121 119 120 114 105 114 111 97 92 92 89 90 93 95 96 96 90 88 88 88 84 84 81 75 73
173 170 176 176 137 109 167 199 150 143 146 142 146 137 136 134 118 86 117 129 135 133 129 124 121 112 124 129 121 120 129 126 125 119 121 128 121 121 126 120 108 110 99 105 108 104 85 82 71 89 127 128 129 131 141 142 136 140 129 126 129 130 127 117 116 106 105 109 106 100 98 94 92 98 103 102 99 97 92 91 88 87 82 78 76
190 172 167 156 117 139 189 164 154 152 161 144 139 137 128 122 125 114 89 99 131 134 129 124 110 95 93 109 111 112 103 100 101 122 117 128 138 140 127 127 124 109 117 125 124 103 96 86 88 104 132 136 133 141 134 146 152 156 153 139 142 149 156 141 111 129 126 113 111 114 115 110 106 99 97 103 105 101 96 97 99 93 89 83 74
199 177 163 143 138 159 188 148 150 161 169 160 158 157 144 126 127 127 118 113 115 125 125 114 96 86 84 82 104 114 110 108 104 144 101 128 125 129 137 132 137 127 129 132 128 123 124 128 102 98 107 131 142 156 173 185 23 179 181 164 163 151 162 144 139 141 127 130 128 117 110 113 111 114 116 111 111 112 114 116 106 94 84 79 74
207 173 167 153 144 152 160 142 128 200 186 183 165 145 127 124 121 120 128 123 128 133 126 124 117 104 105 116 118 120 122 123 116 119 126 134 125 134 131 135 138 149 153 139 133 135 142 131 119 107 115 106 124 116 93 69 71 333 345 214 184 163 173 162 154 146 140 144 134 128 125 126 133 128 123 123 123 127 121 109 101 94 80 83 77
191 110 191 155 131 147 156 157 158 179 240 176 132 124 128 129 130 108 100 132 142 150 142 134 123 144 139 121 105 110 124 127 124 121 126 131 134 145 149 155 155 155 148 151 155 163 147 135 142 118 119 115 115 113 94 107 64 339 86 269 228 202 191 168 164 149 153 154 156 145 146 147 152 157 152 149 139 125 126 119 109 97 97 79 75
82 174 212 154 146 156 165 160 162 166 177 169 143 146 149 151 149 138 133 96 127 151 158 97 138 134 117 117 134 116 105 103 109 130 155 159 156 152 157 152 151 149 150 147 169 187 172 172 164 160 127 109 117 93 92 80 80 13 252 94 92 328 283 198 167 158 158 159 167 158 169 162 172 174 167 149 134 134 135 130 114 99 91 97 90
149 200 198 163 94 93 149 162 160 186 170 160 159 161 149 152 143 143 140 140 152 168 173 196 165 143 143 175 146 156 149 212 142 146 166 154 149 148 148 154 142 127 130 154 165 184 194 188 167 168 166 148 141 128 128 149 78 100 51 92 197 173 240 239 170 166 163 158 162 161 172 173 177 180 173 135 104 109 119 106 102 101 101 95 93
178 202 162 109 141 159 168 176 163 186 175 166 169 174 167 162 156 151 167 155 159 164 192 209 202 330 139 129 75 255 208 141 135 152 160 142 139 145 153 152 154 161 148 157 162 201 202 174 159 168 151 150 134 133 122 90 100 92 87 307 307 218 245 198 193 182 172 177 179 169 184 190 189 164 111 98 123 133 113 105 107 103 101 100 98
198 192 152 137 165 151 161 167 166 180 184 180 159 151 163 165 174 171 169 177 155 162 170 217 212 91 35 130 162 172 172 168 164 181 97 114 154 148 147 159 154 155 149 176 197 201 204 180 149 131 123 107 105 117 124 120 123 82 1 287 304 237 217 204 201 201 180 187 188 176 181 179 158 143 144 144 141 126 117 108 106 107 106 105 102
200 177 162 152 141 143 182 171 168 178 170 165 172 174 174 176 167 173 179 154 148 165 172 175 173 261 170 68 110 253 150 149 188 121 150 153 143 134 128 150 140 145 177 218 215 199 184 172 145 126 60 59 122 136 132 138 140 144 223 305 311 271 218 208 348 281 196 194 198 183 163 169 159 160 145 127 121 117 116 115 114 111 110 107 104
202 179 138 157 161 167 179 185 179 164 176 181 179 173 163 161 176 162 152 170 170 169 165 169 176 186 175 235 11 93 119 64 143 161 148 158 158 59 97 139 131 193 197 184 203 198 164 106 108 91 87 80 96 95 124 123 76 327 299 308 277 259 189 179 193 240 340 229 208 183 169 167 181 142 130 125 122 120 120 118 115 114 111 109 107
185 173 162 173 183 170 173 192 184 179 191 186 175 164 169 166 164 162 180 180 184 163 156 179 185 174 145 71 77 100 78 45 119 88 139 154 161 175 161 105 109 158 140 166 209 158 135 120 110 113 118 104 96 107 107 121 169 263 257 281 256 233 205 151 150 254 79 53 20 181 129 228 181 135 125 123 120 118 116 117 117 116 112 109 105
169 192 152 153 192 162 174 184 186 187 196 195 173 162 164 175 188 183 175 171 171 164 179 177 184 152 158 139 124 116 66 54 74 104 73 102 162 179 161 167 172 130 87 160 131 99 107 108 101 109 101 82 70 62 42 59 59 258 269 276 251 203 162 153 153 116 126 107 72 20 213 189 148 128 127 126 128 124 124 123 123 120 116 110 106
159 203 164 156 189 167 172 185 186 185 189 184 183 176 179 184 186 179 171 170 171 172 164 153 164 157 156 166 167 170 173 173 183 176 144 147 133 153 166 179 170 132 62 34 80 103 112 113 119 99 105 82 63 58 42 35 36 4 0 351 27 168 152 172 138 140 127 90 78 82 138 149 136 123 127 133 134 133 130 129 126 123 119 117 115
164 174 148 164 177 184 174 181 189 189 189 185 178 174 170 174 174 183 178 175 166 167 167 157 167 175 181 179 184 182 176 172 171 170 161 151 144 147 161 142 104 88 114 65 72 85 97 92 87 90 69 71 60 56 55 48 37 45 57 45 63 107 136 154 139 153 135 133 173 156 172 176 131 128 135 143 143 138 136 133 131 131 130 127 125
169 169 189 175 182 192 183 182 192 197 185 174 171 161 172 178 180 183 176 173 177 175 172 182 175 181 195 192 176 181 183 159 141 141 110 126 130 132 126 152 147 137 129 154 112 74 66 92 102 84 85 83 74 66 67 56 45 44 73 56 71 102 118 139 144 151 145 162 178 214 213 151 127 137 140 145 145 144 139 132 129 134 140 135 134
179 184 180 181 194 196 190 191 195 188 182 176 172 175 176 173 175 178 180 182 169 178 185 179 182 194 172 170 185 177 168 162 146 144 146 134 144 149 142 137 139 133 139 136 128 148 98 74 93 108 104 101 103 96 87 77 73 61 76 88 74 100 109 118 126 137 144 143 155 153 115 109 120 137 142 130 111 103 108 118 134 143 142 147 144
185 175 177 172 168 178 200 198 195 188 180 175 171 174 174 171 178 183 178 168 177 176 181 169 177 178 180 186 178 168 162 162 157 166 161 159 151 157 148 151 136 132 128 76 128 164 175 101 139 130 121 122 109 97 87 81 82 81 80 80 80 99 114 115 121 124 127 123 122 112 106 104 106 108 110 113 119 121 124 132 139 144 149 146 141
207 185 179 178 175 166 168 223 232 205 189 179 174 172 172 173 176 176 177 165 167 177 180 177 184 183 183 173 161 175 159 163 169 161 166 152 154 160 162 161 153 156 158 177 185 210 178 168 134 131 144 124 104 95 88 88 73 74 70 76 76 90 105 109 112 121 122 121 123 121 119 120 123 126 128 132 134 139 143 150 154 154 156 152 152
206 198 183 178 174 170 173 172 195 229 198 188 177 173 171 168 171 173 174 166 164 176 168 178 182 172 172 176 177 157 164 156 153 149 144 148 162 171 174 173 164 146 167 198 203 203 216 192 192 171 145 140 121 107 104 77 86 75 69 66 86 86 106 110 112 118 123 129 133 134 137 139 142 143 148 148 149 146 156 163 164 163 163 157 149
199 197 187 181 170 176 176 175 172 185 222 186 179 172 163 166 171 177 172 159 155 148 168 163 160 158 154 156 154 142 155 158 160 154 153 160 164 180 185 169 158 149 161 181 203 197 194 234 209 169 176 153 136 122 116 114 70 86 80 79 92 104 118 120 124 127 128 133 139 144 150 155 158 160 161 162 163 162 164 171 172 175 176 175 160
195 190 186 175 165 170 179 165 153 149 208 210 178 164 162 160 167 160 158 156 150 154 164 158 156 151 152 153 145 137 152 148 140 145 150 157 173 181 175 130 143 142 150 132 148 229 188 183 224 225 157 164 152 121 104 92 97 93 114 135 125 136 133 136 140 144 146 148 151 156 161 166 168 169 171 172 173 173 175 180 184 186 194 187 169
193 185 188 177 170 170 170 165 152 141 179 191 176 161 160 168 156 156 162 154 151 155 157 156 149 152 148 149 149 141 143 135 135 150 160 170 166 170 157 127 117 137 136 127 131 165 202 207 180 176 155 144 153 144 131 128 107 120 133 139 170 152 138 139 159 160 160 162 163 169 171 170 176 179 181 185 185 185 189 190 193 196 201 194 180
179 182 185 179 172 176 172 163 154 156 179 163 160 154 154 151 161 155 156 152 153 148 147 146 149 150 150 144 141 142 146 135 146 145 154 161 149 146 130 127 131 158 144 127 131 126 109 338 147 162 143 138 151 168 156 156 163 148 125 77 63 20 20 0 212 198 192 183 183 186 186 179 184 190 192 195 195 196 197 200 201 204 207 200 195
176 179 185 179 167 182 172 157 154 155 165 159 152 155 154 151 155 152 152 154 146 141 148 149 149 149 143 138 132 135 149 141 147 155 159 155 152 148 159 151 158 172 176 117 133 139 175 143 121 67 134 185 140 183 181 181 192 152 176 116 74 48 17 335 294 273 261 246 224 213 210 200 199 207 204 205 208 207 208 208 212 212 217 213 206
181 179 177 169 170 189 168 159 151 155 158 155 160 159 159 159 160 162 164 160 149 145 149 156 151 141 134 130 139 151 150 146 160 153 152 156 155 158 163 164 163 177 186 148 126 134 161 211 139 150 171 176 192 182 194 186 131 149 171 183 157 257 229 207 256 266 265 256 253 254 247 235 223 227 230 224 227 229 227 227 226 227 227 227 218
172 185 159 161 169 181 171 161 155 153 147 151 162 169 166 166 162 162 164 158 148 151 154 154 151 151 148 141 160 162 154 150 159 148 161 154 158 158 159 175 162 176 186 171 165 136 163 165 208 179 169 166 205 103 141 124 140 156 182 157 168 228 240 229 224 250 251 245 237 239 246 251 244 239 242 245 237 234 234 232 230 230 234 236 233
181 166 162 159 170 174 177 172 158 149 154 157 161 167 171 168 163 159 159 152 148 151 154 158 159 151 153 159 162 160 153 147 158 159 162 166 164 158 166 166 167 170 165 179 175 133 147 179 143 85 112 144 122 118 165 159 133 132 143 203 220 230 242 242 244 242 248 249 235 223 224 228 231 232 232 234 236 237 238 240 240 240 239 241 240
170 169 163 171 171 182 180 176 158 152 155 161 164 169 166 160 157 155 150 146 145 147 147 144 147 147 149 154 159 163 162 160 171 168 167 174 165 166 171 178 173 149 161 173 172 150 142 134 154 134 90 153 164 157 193 175 154 173 216 227 250 234 235 262 240 237 234 231 221 223 226 232 233 233 233 231 230 233 236 235 234 237 238 239 237
163 161 159 161 168 172 180 167 150 149 154 155 157 155 157 158 156 147 133 127 131 134 128 133 138 140 145 148 160 161 167 176 168 172 173 174 176 184 175 176 169 152 158 166 160 156 142 128 93 112 138 187 162 183 190 181 175 185 190 211 261 212 212 230 266 239 226 243 240 232 231 230 235 235 235 237 237 237 238 237 235 236 237 237 236
168 168 162 155 146 148 159 138 128 132 134 136 142 151 156 157 147 135 134 128 120 113 105 116 130 145 160 164 156 163 167 178 186 178 173 173 177 171 164 157 158 158 157 143 145 145 144 135 123 155 158 143 140 24 81 116 158 241 197 193 247 268 290 235 230 250 249 218 245 238 234 239 241 242 245 244 240 237 238 240 239 239 239 241 240
164 158 131 133 131 118 99 110 114 116 131 142 152 152 145 139 137 133 135 131 129 121 112 106 88 88 80 86 112 144 147 150 166 162 171 162 157 144 147 139 137 137 120 124 131 131 128 136 122 102 125 137 188 151 166 190 198 313 178 172 266 339 289 302 268 211 221 232 239 237 241 203 245 244 241 251 244 237 242 240 250 246 247 252 258
133 133 131 134 136 132 124 104 98 105 106 73 75 161 158 148 136 126 127 135 134 133 128 111 89 69 73 74 72 80 82 82 85 97 96 88 67 81 134 143 138 130 137 140 149 156 149 159 168 146 157 190 203 216 209 45 155 113 75 115 222 279 346 278 262 223 206 199 223 253 248 176 210 249 224 245 254 223 264 253 247 251 249 241 239
131 126 133 144 138 136 129 124 116 103 83 74 59 190 147 136 130 131 133 134 136 135 134 129 122 110 96 90 91 84 84 83 78 78 75 76 80 81 75 69 60 116 138 109 86 109 106 99 111 98 104 189 242 198 200 192 170 176 184 180 209 253 270 312 299 341 254 190 192 276 284 167 189 244 253 246 264 51 262 240 244 244 248 251 248
124 121 131 146 129 121 105 103 105 107 101 55 121 197 157 138 133 131 132 131 134 134 134 125 123 121 115 104 92 95 97 101 101 92 88 91 92 86 81 75 71 62 60 108 135 104 110 114 87 89 110 103 73 178 198 187 202 177 193 185 190 202 207 217 220 236 36 263 187 230 288 188 183 232 276 273 46 107 254 280 287 273 262 264 263
117 120 137 133 120 116 116 116 104 84 83 38 145 171 159 137 130 126 120 128 125 122 125 122 122 122 122 110 93 69 92 113 110 108 107 98 90 91 90 85 74 70 66 58 49 79 135 108 112 110 139 156 116 146 208 176 149 93 136 164 168 178 200 262 251 231 5 350 129 216 280 286 109 218 251 289 135 206 248 257 257 268 275 282 272
113 113 123 121 117 111 111 111 96 75 74 38 136 151 144 126 118 110 108 106 103 100 96 94 100 101 108 111 99 80 86 93 97 103 101 96 91 82 73 66 67 61 63 62 68 67 65 91 115 113 131 6 65 28 340 65 75 37 39 319 116 137 182 225 269 68 39 2 36 12 312 318 34 326 306 292 202 297 309 320 308 319 311 282 261
98 126 139 128 110 108 108 108 105 77 27 72 125 127 121 112 106 103 102 97 90 80 73 75 74 72 60 81 109 120 102 77 64 103 102 99 91 82 74 64 59 53 45 35 36 45 54 63 71 80 76 54 50 62 71 85 42 64 149 161 188 180 191 35 66 65 55 20 3 285 268 304 2 341 310 320 340 11 34 25 20 359 349 331 301
60 45 65 99 107 105 110 113 105 85 48 77 127 125 119 113 105 101 103 97 91 81 71 59 61 62 70 81 97 99 99 82 79 106 109 107 95 91 84 79 71 60 54 49 50 54 62 65 60 59 48 37 29 10 1 359 9 18 77 72 46 39 66 66 108 25 60 30 29 16 293 291 25 326 314 327 317 24 11 18 358 357 348 344 341
67 39 7 63 70 83 76 71 91 78 59 58 103 122 122 116 104 107 102 92 87 88 77 61 51 45 56 70 73 90 85 76 98 124 118 110 105 100 99 91 83 73 55 39 65 82 88 84 81 80 77 71 62 53 47 42 41 327 178 85 54 331 69 44 27 94 69 19 24 12 320 316 6 359 312 294 347 37 16 6 357 359 353 351 354
66 54 349 62 59 53 60 69 75 92 75 52 78 92 103 111 118 115 107 100 91 91 87 82 83 55 34 65 76 76 82 68 88 101 110 109 111 116 115 106 92 81 58 22 98 91 93 85 80 77 70 64 60 56 48 42 35 23 58 72 8 19 70 73 0 60 91 49 17 348 309 29 323 4 345 323 107 114 9 21 9 6 7 1 357
65 58 359 63 70 56 50 61 65 66 65 53 65 81 89 101 106 109 109 105 98 94 97 85 70 81 55 52 63 77 88 93 91 93 97 102 104 110 116 105 98 87 60 32 81 77 53 54 41 51 47 42 45 44 43 42 41 42 44 53 21 37 61 27 3 0 110 32 12 349 345 10 3 12 6 348 2 327 57 11 17 7 3 356 354